Back to catalog

ANIK E1

AliveCommunicationsGEO
NORAD 21726·PAYLOAD·🇨🇦 Canada

Launched Sep 26, 1991 from Guiana Space Centre

Loading…

TLE

FreshSource: Space-Track

Epoch: Sep 14, 2026, 09:26 UTC

1 21726U 91067A   26257.39306641 -.00000064  00000-0  00000-0 0  9996
2 21726  14.1875  11.8906 0010883 289.0661 103.4913  0.99171349118186

Track ANIK E1 in real time with AllMySat

Download on the App Store